• In France
  • List of Countries
  • For 7 days
  • Water Temperature
  • Satellite Maps
  • Weather Map
  • Weather Widgets
  • user-avatar
    Login

    Hourly Weather Karlanyurt

    Today, 21 August, Tuesday

    Time Temperature Precipitation Wind Pressure Humidity
    00:00 +20°C° 0 mm 4 mps 749 mmHg 63%
    01:00 +20°C° 0 mm 4 mps 749 mmHg 63%
    02:00 +20°C° 0 mm 4 mps 748 mmHg 63%
    03:00 +20°C° 0 mm 4 mps 749 mmHg 66%
    04:00 +20°C° 0 mm 4 mps 748 mmHg 66%
    05:00 +20°C° 0 mm 4 mps 748 mmHg 65%
    06:00 +20°C° 0 mm 4 mps 748 mmHg 65%
    07:00 +23°C° 0 mm 4 mps 748 mmHg 58%
    08:00 +26°C° 0 mm 5 mps 748 mmHg 52%
    09:00 +28°C° 0 mm 5 mps 748 mmHg 45%
    10:00 +29°C° 0 mm 6 mps 748 mmHg 43%
    11:00 +30°C° 0 mm 6 mps 748 mmHg 41%
    12:00 +32°C° 0 mm 6 mps 748 mmHg 39%
    13:00 +32°C° 0 mm 7 mps 747 mmHg 39%
    14:00 +32°C° 0 mm 7 mps 747 mmHg 40%
    15:00 +32°C° 0 mm 7 mps 747 mmHg 41%
    16:00 +30°C° 0 mm 6 mps 747 mmHg 46%
    17:00 +28°C° 0 mm 6 mps 747 mmHg 51%
    18:00 +27°C° 0 mm 5 mps 747 mmHg 56%
    19:00 +26°C° 0 mm 5 mps 747 mmHg 60%
    20:00 +25°C° 0 mm 5 mps 747 mmHg 65%
    21:00 +23°C° 0 mm 4 mps 747 mmHg 69%
    22:00 +23°C° 0 mm 4 mps 747 mmHg 70%
    23:00 +22°C° 0 mm 4 mps 747 mmHg 71%

    Tomorrow, 22 August, Wednesday

    Time Temperature Precipitation Wind Pressure Humidity
    00:00 +22°C° 0 mm 3 mps 747 mmHg 72%
    01:00 +22°C° 0 mm 3 mps 747 mmHg 72%
    02:00 +22°C° 0 mm 3 mps 746 mmHg 72%
    03:00 +21°C° 0 mm 2 mps 746 mmHg 72%
    04:00 +21°C° 0 mm 2 mps 746 mmHg 70%
    05:00 +23°C° 0 mm 2 mps 746 mmHg 69%
    06:00 +23°C° 0 mm 2 mps 747 mmHg 67%
    07:00 +25°C° 0 mm 2 mps 747 mmHg 60%
    08:00 +27°C° 0 mm 2 mps 746 mmHg 53%
    09:00 +29°C° 0 mm 2 mps 746 mmHg 47%
    10:00 +31°C° 0 mm 2 mps 746 mmHg 43%
    11:00 +32°C° 0 mm 2 mps 746 mmHg 40%
    12:00 +34°C° 0 mm 3 mps 746 mmHg 37%
    13:00 +35°C° 0.2 mm 3 mps 746 mmHg 37%
    14:00 +35°C° 0.2 mm 3 mps 746 mmHg 37%
    15:00 +35°C° 0.2 mm 3 mps 746 mmHg 37%
    16:00 +34°C° 0.1 mm 3 mps 746 mmHg 40%
    17:00 +33°C° 0.1 mm 3 mps 746 mmHg 42%
    18:00 +31°C° 0.1 mm 2 mps 746 mmHg 45%
    19:00 +29°C° 0.1 mm 2 mps 746 mmHg 49%
    20:00 +28°C° 0.1 mm 2 mps 747 mmHg 53%
    21:00 +26°C° 0.1 mm 2 mps 747 mmHg 57%
    22:00 +26°C° 0.1 mm 2 mps 747 mmHg 57%
    23:00 +25°C° 0.1 mm 2 mps 747 mmHg 57%

    Day after tomorrow, 23 August, Thursday

    Time Temperature Precipitation Wind Pressure Humidity
    00:00 +25°C° 0.1 mm 2 mps 747 mmHg 58%
    01:00 +25°C° 0 mm 2 mps 747 mmHg 59%
    02:00 +24°C° 0 mm 2 mps 747 mmHg 60%
    03:00 +24°C° 0 mm 2 mps 747 mmHg 61%
    04:00 +24°C° 0 mm 2 mps 747 mmHg 61%
    05:00 +24°C° 0 mm 2 mps 747 mmHg 61%
    06:00 +24°C° 0 mm 2 mps 748 mmHg 61%
    07:00 +26°C° 0 mm 2 mps 748 mmHg 54%
    08:00 +29°C° 0 mm 2 mps 748 mmHg 47%
    09:00 +31°C° 0 mm 2 mps 748 mmHg 40%
    10:00 +32°C° 0 mm 2 mps 748 mmHg 37%
    11:00 +34°C° 0 mm 3 mps 748 mmHg 34%
    12:00 +35°C° 0 mm 3 mps 748 mmHg 31%
    13:00 +35°C° 0 mm 3 mps 748 mmHg 32%
    14:00 +35°C° 0 mm 4 mps 748 mmHg 32%
    15:00 +35°C° 0 mm 4 mps 748 mmHg 33%
    16:00 +33°C° 0 mm 4 mps 748 mmHg 37%
    17:00 +32°C° 0 mm 4 mps 748 mmHg 42%
    18:00 +29°C° 0 mm 4 mps 748 mmHg 46%
    19:00 +28°C° 0 mm 4 mps 748 mmHg 53%
    20:00 +26°C° 0 mm 3 mps 749 mmHg 60%
    21:00 +25°C° 0 mm 3 mps 749 mmHg 67%
    22:00 +24°C° 0.1 mm 3 mps 749 mmHg 70%
    23:00 +24°C° 0.1 mm 3 mps 749 mmHg 73%

    24 August, Friday

    Time Temperature Precipitation Wind Pressure Humidity
    00:00 +22°C° 0.1 mm 3 mps 749 mmHg 75%
    01:00 +22°C° 0 mm 3 mps 749 mmHg 77%
    02:00 +22°C° 0 mm 3 mps 749 mmHg 78%
    03:00 +22°C° 0 mm 3 mps 749 mmHg 79%
    04:00 +22°C° 0 mm 3 mps 749 mmHg 78%
    05:00 +22°C° 0 mm 3 mps 749 mmHg 77%
    06:00 +22°C° 0 mm 3 mps 749 mmHg 75%
    07:00 +25°C° 0 mm 4 mps 749 mmHg 66%
    08:00 +27°C° 0 mm 4 mps 749 mmHg 57%
    09:00 +29°C° 0 mm 5 mps 749 mmHg 48%
    10:00 +30°C° 0 mm 6 mps 749 mmHg 45%
    11:00 +32°C° 0 mm 6 mps 749 mmHg 42%
    12:00 +33°C° 0 mm 7 mps 749 mmHg 39%
    13:00 +32°C° 0 mm 7 mps 748 mmHg 40%
    14:00 +32°C° 0 mm 7 mps 748 mmHg 41%
    15:00 +32°C° 0 mm 7 mps 748 mmHg 41%
    16:00 +29°C° 0.1 mm 7 mps 748 mmHg 44%
    17:00 +28°C° 0.1 mm 6 mps 748 mmHg 47%
    18:00 +27°C° 0.1 mm 6 mps 748 mmHg 50%
    19:00 +25°C° 0 mm 5 mps 748 mmHg 55%
    20:00 +23°C° 0 mm 4 mps 748 mmHg 60%
    21:00 +22°C° 0 mm 4 mps 749 mmHg 65%
    22:00 +22°C° 0 mm 4 mps 749 mmHg 66%
    23:00 +21°C° 0 mm 3 mps 748 mmHg 68%

    25 August, Saturday

    Time Temperature Precipitation Wind Pressure Humidity
    00:00 +21°C° 0 mm 3 mps 748 mmHg 70%
    01:00 +21°C° 0 mm 3 mps 748 mmHg 71%
    02:00 +21°C° 0 mm 3 mps 748 mmHg 72%
    03:00 +20°C° 0 mm 3 mps 748 mmHg 73%
    04:00 +21°C° 0 mm 3 mps 748 mmHg 71%
    05:00 +21°C° 0 mm 3 mps 748 mmHg 70%
    06:00 +21°C° 0 mm 3 mps 748 mmHg 69%
    07:00 +23°C° 0 mm 4 mps 748 mmHg 62%
    08:00 +26°C° 0 mm 5 mps 748 mmHg 54%
    09:00 +28°C° 0 mm 6 mps 748 mmHg 47%
    10:00 +29°C° 0 mm 6 mps 748 mmHg 44%
    11:00 +30°C° 0 mm 6 mps 748 mmHg 41%
    12:00 +32°C° 0 mm 7 mps 747 mmHg 38%
    13:00 +32°C° 0 mm 7 mps 747 mmHg 38%
    14:00 +32°C° 0 mm 7 mps 747 mmHg 38%
    15:00 +32°C° 0 mm 8 mps 747 mmHg 38%
    16:00 +29°C° 0 mm 7 mps 747 mmHg 41%
    17:00 +28°C° 0 mm 7 mps 747 mmHg 44%
    18:00 +27°C° 0 mm 6 mps 747 mmHg 47%
    19:00 +26°C° 0 mm 6 mps 747 mmHg 51%
    20:00 +25°C° 0 mm 5 mps 747 mmHg 54%
    21:00 +22°C° 0 mm 5 mps 747 mmHg 58%
    22:00 +22°C° 0 mm 5 mps 747 mmHg 58%
    23:00 +22°C° 0 mm 4 mps 747 mmHg 58%

    26 August, Sunday

    Time Temperature Precipitation Wind Pressure Humidity
    00:00 +22°C° 0 mm 4 mps 747 mmHg 58%
    01:00 +22°C° 0 mm 4 mps 746 mmHg 57%
    02:00 +22°C° 0 mm 4 mps 746 mmHg 56%
    03:00 +21°C° 0 mm 4 mps 746 mmHg 55%
    04:00 +22°C° 0 mm 4 mps 746 mmHg 54%
    05:00 +22°C° 0 mm 4 mps 746 mmHg 53%
    06:00 +22°C° 0 mm 4 mps 746 mmHg 52%
    07:00 +25°C° 0 mm 5 mps 746 mmHg 45%
    08:00 +28°C° 0 mm 5 mps 746 mmHg 39%
    09:00 +30°C° 0 mm 6 mps 745 mmHg 32%
    10:00 +32°C° 0 mm 7 mps 745 mmHg 31%
    11:00 +33°C° 0 mm 7 mps 745 mmHg 30%
    12:00 +34°C° 0 mm 8 mps 744 mmHg 29%
    13:00 +34°C° 0 mm 8 mps 744 mmHg 31%
    14:00 +33°C° 0 mm 8 mps 744 mmHg 32%
    15:00 +33°C° 0 mm 9 mps 744 mmHg 34%
    16:00 +32°C° 0 mm 8 mps 744 mmHg 38%
    17:00 +29°C° 0 mm 7 mps 744 mmHg 42%
    18:00 +28°C° 0 mm 7 mps 744 mmHg 46%
    19:00 +27°C° 0 mm 6 mps 744 mmHg 51%
    20:00 +26°C° 0 mm 6 mps 744 mmHg 55%
    21:00 +25°C° 0 mm 5 mps 744 mmHg 59%
    22:00 +23°C° 0 mm 5 mps 744 mmHg 59%
    23:00 +23°C° 0 mm 5 mps 744 mmHg 60%
    Show more